#timestamp,LO_Frequency,Hit,StdDev 
1644613215.1,286046983.6,N
1644613235.8,286046981.1,N
1644613255.7,286046981.3,N
1644613275.5,286046979.0,Y
1644613295.4,286046989.6,P
1644613315.2,286046988.9,P
1644613335.0,286046991.1,P
1644613335.9,286046991.1,Y
1644613355.8,286046998.5,P
1644613375.6,286046998.3,N
1644613395.5,286046998.6,N
1644613415.3,286046999.1,N
1644613435.1,286046996.9,N
1644613455.9,286046999.6,N
1644613475.7,286046999.4,N
1644613495.5,286047000.7,N
1644613515.4,286047000.6,N
1644613535.2,286047000.1,N
1644613555.1,286047002.3,N
1644613556.0,286047002.3,N
1644613575.8,286047002.5,N
1644613595.6,286047003.5,N
1644613615.5,286047001.3,N
1644613635.3,286047001.3,N
1644613655.2,286047002.1,N
1644613675.9,286047002.5,N
1644613695.7,286047001.6,N
1644613715.6,286047001.4,N
1644613735.4,286047002.2,N
1644613755.2,286047003.6,N
1644613775.1,286047005.2,N
1644613776.0,286047005.2,N
1644613795.8,286047007.2,N
1644613815.7,286047007.1,N
1644613835.5,286047004.6,N
1644613855.3,286047004.5,N
1644613875.2,286047007.4,N
1644613895.0,286047004.6,N
1644613895.9,286047004.6,N
1644613915.7,286047005.5,N
1644613935.6,286047004.7,N
1644613955.4,286047007.6,N
1644613975.3,286047007.2,N
1644613995.1,286047005.2,N
1644613996.0,286047005.2,N
1644614015.8,286047007.5,Y
1644614035.7,286047004.4,P
1644614055.5,286047001.7,P
1644614075.3,286047003.2,N
1644614095.2,286047003.7,Y
1644614115.0,286046999.7,P
1644614115.9,286046999.7,N
1644614135.8,286046999.9,N
1644614155.6,286047002.2,N
1644614175.4,286047003.9,N
1644614195.3,286047002.0,N
1644614215.1,286047000.1,N
1644614235.9,286046999.8,N
1644614255.7,286047002.6,N
1644614275.5,286047001.9,N
1644614295.4,286047000.2,N
1644614315.2,286047002.2,N
1644614335.0,286047002.5,N
1644614335.9,286047002.5,N
1644614355.8,286047001.5,N
1644614375.6,286047001.9,N
1644614395.4,286047002.0,N
1644614415.3,286047001.8,N
1644614435.1,286047001.8,N
1644614455.9,286047001.5,N
1644614475.7,286047002.7,N
1644614495.5,286047001.8,N
1644614515.4,286047015.1,Y
1644614535.2,286047021.8,P
1644614555.0,286047020.4,N
1644614556.0,286047020.4,N
1644614575.8,286047013.1,N
1644614595.6,286047009.6,N
1644614615.5,286047008.7,N
1644614635.3,286047007.4,N
1644614655.1,286047003.4,N
1644614675.9,286047004.4,N
1644614695.7,286047001.8,N
1644614715.6,286047004.2,N
1644614735.4,286047003.9,N
1644614755.2,286047001.4,N
1644614775.1,286047002.0,N
1644614776.0,286047002.0,N
1644614795.8,286047002.3,N
1644614815.6,286046999.9,N
1644614835.5,286046998.5,N
1644614855.3,286046998.9,N
1644614875.2,286046996.5,N
1644614895.9,286046998.4,N
1644614915.7,286046999.2,N
1644614935.6,286046998.9,N
1644614955.4,286046999.4,N
1644614975.2,286046998.6,N
1644614995.1,286047001.1,N
1644614996.0,286047001.1,N
1644615015.8,286047000.7,N
1644615035.7,286047000.6,N
1644615055.5,286047000.7,N
1644615075.3,286047001.0,N
1644615095.2,286046999.0,N
1644615115.0,286046999.5,N
1644615115.9,286046999.5,N
1644615135.7,286046999.3,N
1644615155.6,286046999.4,N
1644615175.4,286046999.4,N
1644615225.3,286046996.7,E
1644615235.2,286046998.9,N
1644615255.1,286047001.2,P
1644615256.0,286047001.2,N
1644615275.8,286046999.9,N
1644615295.6,286047000.4,N
1644615315.5,286047000.7,N
1644615335.3,286046999.9,N
1644615355.2,286047000.3,N
1644615375.9,286046999.9,N
1644615395.7,286047002.7,Y
1644615415.6,286047001.2,P
1644615435.4,286046998.7,N
1644615455.2,286046999.3,N
1644615475.1,286046998.5,N
1644615476.0,286046998.5,N
1644615495.8,286046999.9,N
1644615515.7,286047001.8,N
1644615535.5,286047002.8,N
1644615555.3,286047002.4,N
1644615575.2,286046999.7,N
1644615595.0,286047002.7,N
1644615595.9,286047002.7,N
1644615615.8,286047000.2,N
1644615635.6,286046999.7,N
1644615655.5,286047002.4,N
1644615675.3,286047000.6,N
1644615695.1,286047001.0,N
1644615715.9,286047000.2,N
1644615735.7,286047000.3,N
1644615755.6,286046998.1,N
1644615775.4,286046998.5,N
1644615795.2,286047001.0,N
1644615815.1,286047000.9,N
1644615816.0,286047000.9,N
1644615835.8,286047001.2,N
1644615855.6,286047000.5,N
1644615875.5,286047000.9,N
1644615895.3,286047000.0,N
1644615915.2,286047002.2,N
1644615935.9,286047002.2,N
1644615955.7,286047002.6,N
1644615975.6,286047002.7,N
1644615995.4,286047002.8,N
1644616015.3,286047002.5,N
1644616035.1,286047000.2,N
1644616036.0,286047000.2,N
1644616055.8,286047000.7,N
1644616075.7,286047000.3,N
1644616095.5,286047000.9,N
1644616115.4,286047001.0,N
1644616135.2,286047000.1,N
1644616155.0,286046999.8,N
1644616155.9,286046999.8,N
1644616175.8,286047000.0,N
1644616195.6,286046999.9,N
1644616215.4,286047002.8,N
1644616235.3,286047002.4,N
1644616255.1,286047002.3,N
1644616275.9,286047000.2,N
1644616295.7,286047000.1,N
1644616315.5,286046999.9,N
1644616335.4,286047000.1,N
1644616355.2,286047002.6,N
1644616375.0,286046998.5,N
1644616375.9,286046998.5,N
1644616395.8,286047001.0,N
1644616415.6,286046998.2,N
1644616435.5,286047001.0,N
1644616455.3,286047001.1,N
1644616475.1,286047000.4,N
1644616495.9,286046998.1,N
1644616515.7,286046999.3,N
1644616535.6,286046999.3,N
1644616555.4,286046999.4,N
1644616575.2,286046998.4,N
1644616595.1,286046998.9,N
1644616596.0,286046998.9,N
1644616615.8,286046999.4,N
1644616635.7,286046996.6,N
1644616655.5,286046996.6,N
1644616675.3,286046997.3,N
1644616695.2,286046997.3,N
1644616715.0,286046997.8,N
1644616715.9,286047011.9,Y
1644616735.8,286046998.5,P
1644616755.6,286046999.6,N
1644616775.4,286046998.5,P
1644616795.3,286046999.2,N
